Weather Roundup
Issued by NWS

Home | Current Version | Previous Version | Graphics & Text | Print | Product List | Glossary Off
Versions: 1 2 3 4 5 6 7 8 9 10 11 12 13 14 15 16 17 18 19 20 21 22 23 24 25 26 27 28 29 30 31 32 33 34 35 36 37 38 39 40 41 42 43 44 45 46 47 48 49 50

000
NZUS93 KARX 201810
HRRWXR

CURRENT HOURLY OBSERVATIONS ACROSS
MUCH OF THE UPPER MISSISSIPPI VALLEY
NATIONAL WEATHER SERVICE LA CROSSE WI
1200 PM CST SAT DEC 20 2014


...SOUTHEAST MINNESOTA...


CITY           SKY/WX    TMP DP  RH WIND       PRES   REMARKS
ROCHESTER      CLOUDY    30  28  92 S8        30.16R FOG     WCI  22
ROCHESTER/MAYO CLOUDY    31  29  93 S7        30.16S WCI  24
WINONA         CLOUDY    34  28  80 S3        30.19F
AUSTIN         CLOUDY    30  28  93 S8        30.15S FOG     WCI  23
ALBERT LEA     CLOUDY    30  30 100 S6        30.14F FOG     WCI  24
DODGE CENTER   CLOUDY    30  30 100 S9        30.14S FOG     WCI  22
PRESTON        FOG       28  28  98 S10       30.16S VSB 3/4 WCI  19
OWATONNA       PTSUNNY   30  28  93 S6        30.15F FOG     WCI  24
FARIBAULT      CLOUDY    30  28  93 S8        30.15F FOG     WCI  23
$$

...ELSEWHERE IN MINNESOTA...


CITY           SKY/WX    TMP DP  RH WIND       PRES   REMARKS
MINNEAPOLIS    CLOUDY    32  27  81 S8        30.15S HAZE    WCI  25
INTNL FALLS    CLOUDY    29  27  92 VRB3      30.03F FOG
DULUTH         CLOUDY    28  25  88 S10       30.08F FOG     WCI  19
RED WING       CLOUDY    32  28  86 CALM      30.16F FOG
REDWOOD FALLS  CLOUDY    32  28  85 SW13      30.09F WCI  22
MANKATO        CLOUDY    30  23  74 S10       30.13F WCI  21
WORTHINGTON    CLOUDY    30  28  93 S12       30.07F WCI  21
FAIRMONT       CLOUDY    30  25  80 S9        30.12F WCI  22
$$

...SOUTHWEST WISCONSIN...


CITY           SKY/WX    TMP DP  RH WIND       PRES   REMARKS
LA CROSSE      CLOUDY    33  26  75 S6        30.20F WCI  28
PRAIRIE DU CHI CLOUDY    31  26  83 SE6       30.22S HAZE    WCI  25
BOSCOBEL       CLOUDY    32  26  78 S3        30.23F HAZE
LONE ROCK      CLOUDY    34  26  72 E7        30.23F WCI  28
PLATTEVILLE    CLOUDY    31  27  85 CALM      30.22S
FORT MC COY    CLOUDY    31  26  81 CALM      30.22S HAZE
CAMP DOUGLAS   CLOUDY    30  30 100 SE7       30.20F WCI  23
VIROQUA        CLOUDY    29  29 100 SE7       30.18S WCI  22
WIS DELLS      CLOUDY    29  24  83 SE6       30.21F WCI  22
$$

...ELSEWHERE IN WISCONSIN...


CITY           SKY/WX    TMP DP  RH WIND       PRES   REMARKS
MILWAUKEE      CLOUDY    31  20  63 SW6       30.25F WCI  25
MADISON        FLURRIES  29  24  82 S7        30.23F WCI  22
GREEN BAY      CLOUDY    29  23  78 CALM      30.25F HAZE
EAU CLAIRE     CLOUDY    31  24  75 S9        30.17F WCI  23
BLACK RVR FLS  CLOUDY    32  25  75 SE5       30.19F WCI  27
MEDFORD        CLOUDY    27  24  89 SE7       30.16F FOG     WCI  19
WAUSAU         CLOUDY    27  24  89 SE5       30.18F FOG     WCI  22
WIS RAPIDS     CLOUDY    30  23  75 SE5       30.22F WCI  25
MARSHFIELD     CLOUDY    29  24  82 S7        30.18F HAZE    WCI  22
RICE LAKE      CLOUDY    30  26  82 SE6       30.17S WCI  24
$$

...NORTHEAST IOWA...


CITY           SKY/WX    TMP DP  RH WIND       PRES   REMARKS
DECORAH        CLOUDY    30  28  93 S9        30.17S FOG     WCI  22
MASON CITY     CLOUDY    30  29  96 S6        30.16F FOG     WCI  24
CHARLES CITY   CLOUDY    30  32 100 S9        30.17F FOG     WCI  22
OELWEIN        CLOUDY    30  30 100 S8        30.19S FOG     WCI  23
$$

...ELSEWHERE IN IOWA...


CITY           SKY/WX    TMP DP  RH WIND       PRES   REMARKS
DES MOINES     CLOUDY    34  31  88 S8        30.16F FOG     WCI  27
IOWA CITY      CLOUDY    32  29  88 SE6       30.23F FOG     WCI  26
FORT DODGE     CLOUDY    32  27  80 S7        30.14F WCI  26
$$

...NORTHERN ILLINOIS...


CITY           SKY/WX    TMP DP  RH WIND       PRES   REMARKS
CHICAGO-OHARE  CLOUDY    31  23  72 S8        30.26F WCI  23
CHICAGO-MIDWAY CLOUDY    34  25  69 SW9       30.27F WCI  27
MOLINE         CLOUDY    33  26  75 SE7       30.23F HAZE    WCI  27
ROCKFORD       LGT SNOW  30  26  85 S6        30.28F FOG     WCI  24
PEORIA         CLOUDY    34  26  72 SE6       30.26F WCI  29
$$

NOTE: "FAIR" INDICATES FEW OR NO CLOUDS BELOW 12,000 FEET WITH NO
SIGNIFICANT WEATHER AND/OR OBSTRUCTIONS TO VISIBILITY. WIND
SPEEDS ARE IN MILES-PER-HOUR.



USA.gov is the U.S. government's official web portal to all federal, state and local government web resources and services.